Tracking 29487 objects as of 10-Sep-2024
HD Live streaming from Space Station
objects crossing your sky now

COSMOS 1524

Track COSMOS 1524 now!
10-day predictions
COSMOS 1524 is classified as:


NORAD ID: 14613
Int'l Code: 1984-001C
Perigee: 1,418.4 km
Apogee: 1,468.8 km
Inclination: 74.0 °
Period: 114.6 minutes
Semi major axis: 7814 km
RCS: 0.6947 m2 (medium)
Launch date: January 5, 1984
Source: Commonwealth of Independent States (former USSR) (CIS)
Launch site: PLESETSK MISSILE AND SPACE COMPLEX (PKMTR)
Your satellite tracking list
Your tracking list is empty




NASA's NSSDC Master Catalog

Two Line Element Set (TLE):
1 14613U 84001C   24254.31122493  .00000013  00000-0  17659-3 0  9995
2 14613  74.0086 198.7633 0032203 206.2686 308.2007 12.56730286866515
Source of the keplerian elements: AFSPC